Date String (YYYY-MM-DD hh:mm:ss) UTC,Instrument flags,Ambient pressure (hPa),Sample flow (lpm),Bypass flow (lpm),Sample temperature (°C),Ambient temperature (°C),ASC tube jacket temperature (°C),LED temperature (°C),Box temperature (°C),Sample RH (%),Span deviation,Mass concentration (μg/m³),Mass concentration (μg/m³),Mass concentration (μg/m³)
DateTimeUTC,F1_M11,P_M11,Q1_M11,Q2_M11,T1_M11,T2_M11,T3_M11,T4_M11,T5_M11,U1_M11,ZSPAN_M11,X0_M11,X2_M11,X1_M11
2022-01-09 03:00:00,,0827.7,4.99,0.00,21.2,20.3,00.0,30.5,22.7,15.9,0000.0,0006.66,0003.21,0002.90
2022-01-09 03:01:00,,0827.7,5.00,0.00,21.1,20.3,00.0,30.5,22.7,15.8,0000.0,0006.63,0003.20,0002.88
2022-01-09 03:02:00,,0827.7,5.00,0.00,21.1,20.3,00.0,30.5,22.6,15.8,0000.0,0006.36,0003.16,0002.83
2022-01-09 03:03:00,,0827.8,5.01,0.00,21.1,20.2,00.0,30.4,22.6,16.0,0000.0,0006.09,0003.14,0002.81
2022-01-09 03:04:00,,0827.9,4.99,0.00,21.0,20.2,00.0,30.4,22.6,15.9,0000.0,0006.18,0003.14,0002.78
2022-01-09 03:05:00,,0827.9,5.00,0.00,21.0,20.1,00.0,30.4,22.5,15.9,0000.0,0006.18,0003.11,0002.74
2022-01-09 03:06:00,,0827.9,4.98,0.00,21.0,20.2,00.0,30.4,22.5,16.0,0000.0,0006.06,0003.06,0002.69
2022-01-09 03:07:00,,0827.9,5.00,0.00,21.0,20.1,00.0,30.3,22.5,15.9,0000.0,0005.62,0003.02,0002.65
2022-01-09 03:08:00,,0827.9,5.01,0.00,20.9,20.1,00.0,30.3,22.5,15.8,0000.0,0005.50,0002.94,0002.60
2022-01-09 03:09:00,,0827.8,5.00,0.00,20.9,20.1,00.0,30.3,22.5,15.9,0000.0,0004.72,0002.92,0002.57
2022-01-09 03:10:00,,0828.0,4.99,0.00,20.9,20.1,00.0,30.2,22.5,15.9,0000.0,0003.87,0002.86,0002.54
2022-01-09 03:11:00,,0827.9,4.99,0.00,20.9,20.1,00.0,30.2,22.4,15.8,0000.0,0003.77,0002.80,0002.51
2022-01-09 03:12:00,,0827.9,5.00,0.00,20.9,20.1,00.0,30.2,22.4,15.8,0000.0,0003.70,0002.77,0002.51
2022-01-09 03:13:00,,0827.9,5.00,0.00,20.8,20.1,00.0,30.2,22.4,15.8,0000.0,0003.71,0002.79,0002.53
2022-01-09 03:14:00,,0827.9,5.01,0.00,20.8,20.0,00.0,30.1,22.4,15.8,0000.0,0003.71,0002.79,0002.54
2022-01-09 03:15:00,,0828.0,4.99,0.00,20.8,20.0,00.0,30.1,22.4,15.8,0000.0,0003.58,0002.77,0002.55
2022-01-09 03:16:00,,0827.9,5.01,0.00,20.8,20.0,00.0,30.1,22.4,15.8,0000.0,0003.51,0002.77,0002.57
2022-01-09 03:17:00,,0827.9,4.99,0.00,20.8,20.0,00.0,30.1,22.4,15.9,0000.0,0003.48,0002.77,0002.59
2022-01-09 03:18:00,,0827.9,5.01,0.00,20.8,20.0,00.0,30.1,22.4,15.9,0000.0,0003.45,0002.76,0002.60
2022-01-09 03:19:00,,0827.9,4.98,0.00,20.8,20.1,00.0,30.1,22.4,15.9,0000.0,0003.50,0002.77,0002.61
2022-01-09 03:20:00,,0827.9,5.01,0.00,20.9,20.7,00.0,30.1,22.7,15.8,0000.0,0003.91,0002.84,0002.61
2022-01-09 03:21:00,,0827.9,4.99,0.00,21.1,21.6,00.0,30.1,23.0,15.6,0000.0,0004.25,0002.93,0002.63
2022-01-09 03:22:00,,0827.9,5.01,0.00,21.2,22.2,00.0,30.2,23.2,15.3,0000.0,0004.33,0002.99,0002.64
2022-01-09 03:23:00,,0828.0,4.99,0.00,21.3,21.9,00.0,30.2,23.2,15.3,0000.0,0004.50,0003.05,0002.65
2022-01-09 03:24:00,,0828.0,5.00,0.00,21.2,21.6,00.0,30.2,23.0,15.2,0000.0,0005.09,0003.11,0002.66
2022-01-09 03:25:00,,0827.9,5.00,0.00,21.2,21.2,00.0,30.2,22.9,15.2,0000.0,0006.02,0003.16,0002.66
2022-01-09 03:26:00,,0828.0,5.00,0.00,21.2,21.0,00.0,30.2,22.8,15.2,0000.0,0006.15,0003.19,0002.68
2022-01-09 03:27:00,,0828.0,4.98,0.00,21.2,20.8,00.0,30.2,22.8,15.3,0000.0,0007.05,0003.21,0002.68
2022-01-09 03:28:00,,0828.1,5.02,0.00,21.1,20.6,00.0,30.2,22.8,15.3,0000.0,0007.53,0003.29,0002.71
2022-01-09 03:29:00,,0828.2,5.00,0.00,21.1,20.6,00.0,30.2,22.7,15.1,0000.0,0007.68,0003.35,0002.74
2022-01-09 03:30:00,,0828.3,5.01,0.00,21.1,20.5,00.0,30.2,22.6,15.0,0000.0,0007.80,0003.39,0002.79
2022-01-09 03:31:00,,0828.3,4.99,0.00,21.0,20.5,00.0,30.2,22.6,15.0,0000.0,0007.68,0003.41,0002.86
2022-01-09 03:32:00,,0828.4,5.00,0.00,21.0,20.4,00.0,30.2,22.6,15.1,0000.0,0007.55,0003.43,0002.93
2022-01-09 03:33:00,,0828.4,5.02,0.00,20.9,20.3,00.0,30.2,22.5,15.1,0000.0,0007.60,0003.48,0002.98
2022-01-09 03:34:00,,0828.4,4.99,0.00,20.9,20.3,00.0,30.1,22.5,15.2,0000.0,0007.61,0003.49,0003.01
2022-01-09 03:35:00,,0828.5,5.01,0.00,20.9,20.2,00.0,30.1,22.4,15.1,0000.0,0007.49,0003.51,0003.02
2022-01-09 03:36:00,,0828.6,5.00,0.00,20.8,20.2,00.0,30.1,22.4,15.1,0000.0,0006.84,0003.52,0003.02
2022-01-09 03:37:00,,0828.7,4.99,0.00,20.8,20.1,00.0,30.1,22.3,15.1,0000.0,0006.99,0003.55,0003.04
2022-01-09 03:38:00,,0829.1,5.00,0.00,20.7,20.0,00.0,30.0,22.3,15.1,0000.0,0006.34,0003.57,0003.03
2022-01-09 03:39:00,,0828.9,5.01,0.00,20.8,20.4,00.0,30.0,22.4,15.1,0000.0,0006.27,0003.57,0003.02
2022-01-09 03:40:00,,0829.0,5.00,0.00,20.9,21.4,00.0,30.1,22.8,14.9,0000.0,0006.81,0003.58,0003.00
2022-01-09 03:41:00,,0828.7,5.00,0.00,21.1,22.2,00.0,30.1,23.1,14.8,0000.0,0006.92,0003.60,0002.96
2022-01-09 03:42:00,,0828.7,4.99,0.00,21.2,22.0,00.0,30.2,23.1,14.6,0000.0,0006.90,0003.56,0002.87
2022-01-09 03:43:00,,0829.1,5.00,0.00,21.2,21.6,00.0,30.2,23.0,14.6,0000.0,0006.81,0003.51,0002.79
2022-01-09 03:44:00,,0829.1,5.00,0.00,21.1,21.3,00.0,30.2,22.8,14.6,0000.0,0006.89,0003.50,0002.74
2022-01-09 03:45:00,,0828.8,5.00,0.00,21.1,21.0,00.0,30.2,22.7,14.6,0000.0,0006.83,0003.48,0002.70
2022-01-09 03:46:00,,0828.9,5.00,0.00,21.0,20.7,00.0,30.2,22.6,14.6,0000.0,0006.71,0003.45,0002.69
2022-01-09 03:47:00,,0828.9,4.99,0.00,21.0,20.5,00.0,30.1,22.6,14.7,0000.0,0006.62,0003.42,0002.67
2022-01-09 03:48:00,,0828.9,5.01,0.00,20.9,20.4,00.0,30.1,22.5,14.7,0000.0,0006.98,0003.41,0002.66
2022-01-09 03:49:00,,0829.0,4.99,0.00,20.9,20.2,00.0,30.1,22.4,14.7,0000.0,0007.40,0003.39,0002.62
2022-01-09 03:50:00,,0829.1,5.00,0.00,20.9,20.1,00.0,30.1,22.4,14.8,0000.0,0007.53,0003.36,0002.59
2022-01-09 03:51:00,,0829.1,5.01,0.00,20.8,20.1,00.0,30.1,22.4,14.8,0000.0,0008.06,0003.36,0002.57
2022-01-09 03:52:00,,0829.2,5.00,0.00,20.8,20.1,00.0,30.1,22.4,14.9,0000.0,0007.97,0003.33,0002.57
2022-01-09 03:53:00,,0829.3,4.99,0.00,20.8,20.1,00.0,30.0,22.4,14.8,0000.0,0008.00,0003.33,0002.58
2022-01-09 03:54:00,,0829.2,5.00,0.00,20.8,20.1,00.0,30.0,22.4,14.7,0000.0,0008.03,0003.33,0002.57
2022-01-09 03:55:00,,0829.2,5.00,0.00,20.8,20.1,00.0,30.0,22.3,14.8,0000.0,0008.07,0003.27,0002.55
2022-01-09 03:56:00,,0829.2,4.99,0.00,20.7,20.2,00.0,30.0,22.3,14.8,0000.0,0008.21,0003.24,0002.54
2022-01-09 03:57:00,,0829.3,5.01,0.00,20.8,20.9,00.0,30.0,22.6,14.7,0000.0,0008.11,0003.21,0002.50
2022-01-09 03:58:00,,0829.3,5.00,0.00,21.0,21.9,00.0,30.1,23.0,14.4,0000.0,0008.02,0003.18,0002.47
2022-01-09 03:59:00,,0829.3,5.00,0.00,21.2,22.3,00.0,30.1,23.2,14.2,0000.0,0007.75,0003.09,0002.40
